Location: Zagreb
(45.8000°N, 16.0000°E)
Time: 18:53:42
(UTC+02:00)

A-11 Canister half - Pass Details

Date: 09 August 2022
Orbit: 1524 x 1684 km, 47.3° (Epoch: 05 October)

Event Time Altitude Azimuth Distance (km) Brightness Sun altitude
Rises 05:14:36 0° 194° (SSW) 4,891 11.2 -6.1°
Reaches altitude 10° 05:18:22 10° 183° (S) 3,921 10.8 -5.5°
Maximum altitude 05:26:17 27° 131° (SE) 2,815 10.7 -4.3°
Drops below altitude 10° 05:34:13 10° 78° (ENE) 3,945 12.8 -3.1°
Sets 05:38:00 0° 68° (ENE) 4,927 14.9 -2.5°
